When you browse on this site, cookies collect data to enhance your experience and personalize the content and advertising you see.
Visit our Privacy Policy to learn more. By continuing to use the site, you agree to this use of cookies and data.
  • In Latvia
  • List of Countries
  • For 7 days
  • Water Temperature
  • Satellite Maps
  • Weather Map
  • Weather Widgets
  • user-avatar
    Login

    Hourly Weather Austin

    Today, 18 July, Thursday

    Time Temperature Precipitation Wind Pressure Humidity
    00:00 +28°C° 0 mm 5 mps 745 mmHg 84%
    01:00 +27°C° 0 mm 5 mps 744 mmHg 86%
    02:00 +27°C° 0 mm 5 mps 744 mmHg 88%
    03:00 +26°C° 0 mm 4 mps 744 mmHg 90%
    04:00 +26°C° 0 mm 3 mps 744 mmHg 91%
    05:00 +26°C° 0 mm 3 mps 744 mmHg 93%
    06:00 +27°C° 0 mm 3 mps 745 mmHg 86%
    07:00 +29°C° 0 mm 4 mps 745 mmHg 79%
    08:00 +30°C° 0 mm 5 mps 745 mmHg 72%
    09:00 +33°C° 0 mm 5 mps 745 mmHg 63%
    10:00 +35°C° 0 mm 5 mps 744 mmHg 55%
    11:00 +37°C° 0 mm 5 mps 744 mmHg 47%
    12:00 +39°C° 0 mm 5 mps 744 mmHg 43%
    13:00 +40°C° 0 mm 5 mps 743 mmHg 39%
    14:00 +41°C° 0 mm 5 mps 743 mmHg 35%
    15:00 +40°C° 0 mm 6 mps 742 mmHg 38%
    16:00 +39°C° 0 mm 6 mps 742 mmHg 42%
    17:00 +38°C° 0 mm 7 mps 742 mmHg 46%
    18:00 +35°C° 0 mm 6 mps 742 mmHg 54%
    19:00 +33°C° 0 mm 6 mps 742 mmHg 62%
    20:00 +30°C° 0 mm 6 mps 743 mmHg 71%
    21:00 +29°C° 0 mm 6 mps 743 mmHg 75%
    22:00 +29°C° 0 mm 5 mps 743 mmHg 79%
    23:00 +28°C° 0 mm 5 mps 743 mmHg 83%

    Tomorrow, 19 July, Friday

    Time Temperature Precipitation Wind Pressure Humidity
    00:00 +27°C° 0 mm 5 mps 743 mmHg 85%
    01:00 +27°C° 0 mm 4 mps 743 mmHg 86%
    02:00 +27°C° 0 mm 4 mps 743 mmHg 88%
    03:00 +26°C° 0 mm 4 mps 743 mmHg 90%
    04:00 +26°C° 0 mm 4 mps 743 mmHg 91%
    05:00 +26°C° 0 mm 3 mps 743 mmHg 93%
    06:00 +27°C° 0 mm 4 mps 743 mmHg 85%
    07:00 +29°C° 0 mm 4 mps 744 mmHg 78%
    08:00 +30°C° 0 mm 5 mps 744 mmHg 70%
    09:00 +33°C° 0 mm 5 mps 744 mmHg 60%
    10:00 +36°C° 0 mm 5 mps 744 mmHg 50%
    11:00 +39°C° 0 mm 6 mps 744 mmHg 39%
    12:00 +39°C° 0 mm 6 mps 743 mmHg 39%
    13:00 +40°C° 0 mm 6 mps 743 mmHg 38%
    14:00 +40°C° 0 mm 6 mps 742 mmHg 37%
    15:00 +40°C° 0 mm 6 mps 742 mmHg 41%
    16:00 +39°C° 0 mm 7 mps 742 mmHg 45%
    17:00 +38°C° 0 mm 7 mps 742 mmHg 49%
    18:00 +35°C° 0 mm 7 mps 742 mmHg 56%
    19:00 +33°C° 0 mm 6 mps 742 mmHg 63%
    20:00 +30°C° 0 mm 6 mps 743 mmHg 70%
    21:00 +29°C° 0 mm 6 mps 743 mmHg 75%
    22:00 +29°C° 0 mm 5 mps 743 mmHg 79%
    23:00 +28°C° 0 mm 5 mps 743 mmHg 84%

    Day after tomorrow, 20 July, Saturday

    Time Temperature Precipitation Wind Pressure Humidity
    00:00 +27°C° 0 mm 5 mps 743 mmHg 86%
    01:00 +27°C° 0 mm 5 mps 743 mmHg 88%
    02:00 +27°C° 0 mm 4 mps 743 mmHg 90%
    03:00 +26°C° 0 mm 4 mps 743 mmHg 91%
    04:00 +26°C° 0 mm 4 mps 743 mmHg 92%
    05:00 +26°C° 0 mm 3 mps 743 mmHg 93%
    06:00 +28°C° 0 mm 4 mps 743 mmHg 84%
    07:00 +29°C° 0 mm 4 mps 744 mmHg 75%
    08:00 +32°C° 0 mm 5 mps 744 mmHg 65%
    09:00 +34°C° 0 mm 5 mps 744 mmHg 56%
    10:00 +36°C° 0 mm 5 mps 744 mmHg 46%
    11:00 +39°C° 0 mm 5 mps 743 mmHg 37%
    12:00 +40°C° 0 mm 5 mps 743 mmHg 34%
    13:00 +41°C° 0 mm 5 mps 742 mmHg 32%
    14:00 +41°C° 0 mm 5 mps 742 mmHg 30%
    15:00 +40°C° 0 mm 6 mps 742 mmHg 34%
    16:00 +39°C° 0 mm 6 mps 741 mmHg 37%
    17:00 +38°C° 0 mm 6 mps 741 mmHg 41%
    18:00 +35°C° 0 mm 6 mps 742 mmHg 48%
    19:00 +34°C° 0 mm 6 mps 742 mmHg 54%
    20:00 +32°C° 0 mm 6 mps 742 mmHg 60%
    21:00 +30°C° 0 mm 6 mps 742 mmHg 67%
    22:00 +29°C° 0 mm 6 mps 742 mmHg 74%
    23:00 +28°C° 0 mm 5 mps 743 mmHg 81%

    21 July, Sunday

    Time Temperature Precipitation Wind Pressure Humidity
    00:00 +27°C° 0 mm 5 mps 742 mmHg 83%
    01:00 +27°C° 0 mm 4 mps 742 mmHg 85%
    02:00 +26°C° 0 mm 3 mps 742 mmHg 87%
    03:00 +26°C° 0 mm 3 mps 743 mmHg 87%
    04:00 +25°C° 0 mm 3 mps 743 mmHg 88%
    05:00 +25°C° 0 mm 3 mps 743 mmHg 88%
    06:00 +27°C° 0 mm 3 mps 744 mmHg 77%
    07:00 +29°C° 0 mm 3 mps 744 mmHg 67%
    08:00 +32°C° 0 mm 4 mps 745 mmHg 56%
    09:00 +34°C° 0 mm 4 mps 744 mmHg 49%
    10:00 +36°C° 0 mm 4 mps 744 mmHg 41%
    11:00 +38°C° 0 mm 4 mps 744 mmHg 34%
    12:00 +40°C° 0 mm 4 mps 744 mmHg 31%
    13:00 +41°C° 0 mm 4 mps 743 mmHg 29%
    14:00 +41°C° 0 mm 4 mps 743 mmHg 27%
    15:00 +40°C° 0 mm 4 mps 743 mmHg 30%
    16:00 +39°C° 0 mm 5 mps 743 mmHg 34%
    17:00 +38°C° 0 mm 6 mps 742 mmHg 37%
    18:00 +36°C° 0 mm 5 mps 743 mmHg 46%
    19:00 +34°C° 0 mm 5 mps 743 mmHg 55%
    20:00 +32°C° 0 mm 5 mps 743 mmHg 64%
    21:00 +30°C° 0 mm 5 mps 744 mmHg 69%
    22:00 +29°C° 0 mm 4 mps 744 mmHg 73%
    23:00 +28°C° 0 mm 4 mps 744 mmHg 78%

    22 July, Monday

    Time Temperature Precipitation Wind Pressure Humidity
    00:00 +28°C° 0 mm 3 mps 744 mmHg 80%
    01:00 +27°C° 0 mm 3 mps 744 mmHg 81%
    02:00 +27°C° 0 mm 3 mps 744 mmHg 82%
    03:00 +26°C° 0 mm 3 mps 744 mmHg 85%
    04:00 +26°C° 0 mm 2 mps 744 mmHg 87%
    05:00 +26°C° 0 mm 1 mps 745 mmHg 89%
    06:00 +28°C° 0 mm 2 mps 745 mmHg 79%
    07:00 +29°C° 0 mm 2 mps 745 mmHg 68%
    08:00 +31°C° 0 mm 2 mps 746 mmHg 58%
    09:00 +34°C° 0 mm 2 mps 746 mmHg 51%
    10:00 +36°C° 0 mm 2 mps 745 mmHg 43%
    11:00 +37°C° 0 mm 2 mps 745 mmHg 36%
    12:00 +38°C° 0 mm 2 mps 745 mmHg 33%
    13:00 +39°C° 0 mm 2 mps 744 mmHg 30%
    14:00 +40°C° 0 mm 2 mps 744 mmHg 27%
    15:00 +39°C° 0.1 mm 3 mps 743 mmHg 33%
    16:00 +37°C° 0.1 mm 5 mps 743 mmHg 40%
    17:00 +35°C° 0.1 mm 6 mps 743 mmHg 46%
    18:00 +34°C° 1.1 mm 5 mps 743 mmHg 54%
    19:00 +32°C° 1.1 mm 4 mps 744 mmHg 62%
    20:00 +29°C° 1.1 mm 3 mps 744 mmHg 70%
    21:00 +29°C° 0.4 mm 3 mps 744 mmHg 73%
    22:00 +28°C° 0.4 mm 4 mps 745 mmHg 76%
    23:00 +28°C° 0.4 mm 4 mps 745 mmHg 78%

    23 July, Tuesday

    Time Temperature Precipitation Wind Pressure Humidity
    00:00 +27°C° 0.4 mm 4 mps 745 mmHg 80%
    01:00 +26°C° 0.4 mm 4 mps 745 mmHg 81%
    02:00 +26°C° 0.4 mm 4 mps 745 mmHg 83%
    03:00 +25°C° 0.1 mm 4 mps 745 mmHg 83%
    04:00 +25°C° 0.1 mm 4 mps 745 mmHg 84%
    05:00 +25°C° 0.1 mm 4 mps 745 mmHg 84%
    06:00 +25°C° 0 mm 5 mps 746 mmHg 81%
    07:00 +26°C° 0 mm 5 mps 746 mmHg 78%
    08:00 +27°C° 0 mm 6 mps 746 mmHg 75%
    09:00 +27°C° 0 mm 5 mps 746 mmHg 72%
    10:00 +28°C° 0 mm 5 mps 746 mmHg 68%
    11:00 +28°C° 0 mm 5 mps 746 mmHg 65%
    12:00 +30°C° 0 mm 5 mps 745 mmHg 59%
    13:00 +32°C° 0 mm 5 mps 745 mmHg 53%
    14:00 +33°C° 0 mm 5 mps 744 mmHg 48%
    15:00 +33°C° 0 mm 5 mps 744 mmHg 47%
    16:00 +33°C° 0 mm 5 mps 744 mmHg 45%
    17:00 +33°C° 0 mm 5 mps 744 mmHg 44%
    18:00 +32°C° 0 mm 5 mps 745 mmHg 49%
    19:00 +29°C° 0 mm 4 mps 745 mmHg 54%
    20:00 +27°C° 0 mm 4 mps 745 mmHg 60%
    21:00 +27°C° 0 mm 4 mps 745 mmHg 62%
    22:00 +26°C° 0 mm 3 mps 745 mmHg 65%
    23:00 +26°C° 0 mm 3 mps 745 mmHg 68%
    Show more